User: anonymous   Login
Location: Unspecified
(40.9900°N, 0.0000°E)
Time: 19:50:40
(UTC+00:00)
Language:

Cosmos 1943 Rocket - Orbit

View from above orbital plane
View from above orbital plane
View from above satellite
View from above satellite

Ground track
Ground track

The orbit is defined by the following mean orbital elements,

1 19120U          26088.21659481 +.00000000 +00000-0 +11178-3 0 00007
2 19120  71.0168  27.2567 0023671 306.3782  53.5159 14.19619295    00
Epoch (UTC): 29 March 2026 05:11:53
Eccentricity: 0.0023671
inclination: 71.0168°
perigee height: 810 km
apogee height: 844 km
right ascension of ascending node: 27.2567°
argument of perigee: 306.3782°
revolutions per day: 14.19619295
mean anomaly at epoch: 53.5159°

The dashed part of the orbit path shows where the satellite is in the earth's shadow,  

DLR